Location: Aytr�
(46.1357°N, 1.1145°W)
Time: 07:33:07
(UTC+00:00)

Cosmos 2278 Rocket - Pass Details

Date: 03 March 2021
Orbit: 841 x 845 km, 71.0° (Epoch: 18 April)

Event Time Altitude Azimuth Distance (km) Brightness Sun altitude
Rises 20:23:05 0° 336° (NNW) 3,414 6.0 -26.3°
Reaches altitude 10° 20:25:35 10° 340° (NNW) 2,475 5.1 -26.7°
Enters shadow 20:30:22 52° 26° (NNE) 1,047 2.5 -27.5°
